| time (UTC) | temp F | wind direction | speed knots | gust knots | rain 1hr in | rain 24hr in | rain mn in | humidity % | barometer mb |
| 20260505214601 | 85 | 297 | 5.2 | 11.3 | 0.00 | 0.00 | 0.00 | 53 | 1003.5 |
| 20260505214101 | 85 | 288 | 7.0 | 11.3 | 0.00 | 0.00 | 0.00 | 50 | 1003.7 |
| 20260505213600 | 86 | 297 | 7.0 | 10.4 | 0.00 | 0.00 | 0.00 | 50 | 1003.8 |
| 20260505213104 | 86 | 308 | 5.2 | 11.3 | 0.00 | 0.00 | 0.00 | 53 | 1003.7 |
| 20260505212602 | 86 | 283 | 7.0 | 11.3 | 0.00 | 0.00 | 0.00 | 48 | 1003.8 |
| 20260505212100 | 86 | 329 | 7.8 | 11.3 | 0.00 | 0.00 | 0.00 | 48 | 1003.6 |
| 20260505211611 | 86 | 306 | 7.0 | 10.4 | 0.00 | 0.00 | 0.00 | 51 | 1003.6 |
| 20260505211101 | 86 | 309 | 7.0 | 11.3 | 0.00 | 0.00 | 0.00 | 48 | 1003.6 |
| 20260505210600 | 86 | 286 | 7.0 | 12.2 | 0.00 | 0.00 | 0.00 | 48 | 1003.8 |
| 20260505205600 | 87 | 305 | 7.0 | 11.3 | 0.00 | 0.00 | 0.00 | 50 | 1003.8 |
| 20260505205101 | 88 | 304 | 7.0 | 10.4 | 0.00 | 0.00 | 0.00 | 49 | 1003.9 |
| 20260505204602 | 90 | 188 | 4.3 | 7.8 | 0.00 | 0.00 | 0.00 | 55 | 1003.7 |
| 20260505204100 | 90 | 233 | 2.6 | 8.7 | 0.00 | 0.00 | 0.00 | 55 | 1003.8 |
| 20260505203601 | 90 | 255 | 4.3 | 8.7 | 0.00 | 0.00 | 0.00 | 56 | 1003.7 |
| 20260505203100 | 90 | 240 | 1.7 | 8.7 | 0.00 | 0.00 | 0.00 | 56 | 1003.7 |
| 20260505202602 | 90 | 222 | 4.3 | 8.7 | 0.00 | 0.00 | 0.00 | 57 | 1003.8 |
| 20260505202100 | 90 | 221 | 2.6 | 8.7 | 0.00 | 0.00 | 0.00 | 55 | 1003.7 |
| 20260505201601 | 90 | 128 | 3.5 | 7.8 | 0.00 | 0.00 | 0.00 | 57 | 1003.9 |
| 20260505201100 | 90 | 259 | 2.6 | 7.8 | 0.00 | 0.00 | 0.00 | 56 | 1004.1 |
| 20260505200600 | 89 | 244 | 4.3 | 7.8 | 0.00 | 0.00 | 0.00 | 57 | 1004.2 |
| 20260505200103 | 89 | 218 | 3.5 | 8.7 | 0.00 | 0.00 | 0.00 | 59 | 1004.0 |
| 20260505195559 | 89 | 124 | 4.3 | 8.7 | 0.00 | 0.00 | 0.00 | 57 | 1004.0 |
| 20260505195059 | 89 | 254 | 3.5 | 8.7 | 0.00 | 0.00 | 0.00 | 60 | 1004.0 |
| 20260505194612 | 88 | 168 | 5.2 | 8.7 | 0.00 | 0.00 | 0.00 | 58 | 1004.0 |
| 20260505194059 | 88 | 224 | 3.5 | 8.7 | 0.00 | 0.00 | 0.00 | 59 | 1004.1 |
| 20260505193603 | 88 | 20 | 2.6 | 9.6 | 0.00 | 0.00 | 0.00 | 60 | 1004.3 |
| 20260505193059 | 88 | 142 | 3.5 | 9.6 | 0.00 | 0.00 | 0.00 | 60 | 1004.3 |
| 20260505192600 | 88 | 213 | 5.2 | 9.6 | 0.00 | 0.00 | 0.00 | 60 | 1004.2 |
| 20260505192100 | 88 | 107 | 4.3 | 9.6 | 0.00 | 0.00 | 0.00 | 61 | 1004.1 |
| 20260505191600 | 88 | 101 | 3.5 | 13.0 | 0.00 | 0.00 | 0.00 | 62 | 1003.9 |
| 20260505191059 | 87 | 88 | 4.3 | 13.0 | 0.00 | 0.00 | 0.00 | 63 | 1004.0 |
| 20260505190559 | 86 | 187 | 5.2 | 9.6 | 0.00 | 0.00 | 0.00 | 62 | 1004.1 |
| 20260505190058 | 86 | 248 | 6.1 | 9.6 | 0.00 | 0.00 | 0.00 | 64 | 1004.0 |
| 20260505185604 | 85 | 178 | 5.2 | 9.6 | 0.00 | 0.00 | 0.00 | 65 | 1004.2 |
| 20260505185100 | 85 | 172 | 5.2 | 10.4 | 0.00 | 0.00 | 0.00 | 66 | 1004.0 |
| 20260505184558 | 84 | 257 | 5.2 | 10.4 | 0.00 | 0.00 | 0.00 | 66 | 1004.0 |
| 20260505184100 | 84 | 203 | 4.3 | 8.7 | 0.00 | 0.00 | 0.00 | 65 | 1004.1 |
| 20260505183603 | 84 | 212 | 4.3 | 12.2 | 0.00 | 0.00 | 0.00 | 64 | 1004.1 |
| 20260505183058 | 85 | 164 | 3.5 | 12.2 | 0.00 | 0.00 | 0.00 | 64 | 1004.3 |
| 20260505182559 | 85 | 167 | 4.3 | 11.3 | 0.00 | 0.00 | 0.00 | 64 | 1004.3 |
| 20260505182100 | 85 | 185 | 6.1 | 11.3 | 0.00 | 0.00 | 0.00 | 64 | 1004.3 |
| 20260505181601 | 85 | 209 | 3.5 | 11.3 | 0.00 | 0.00 | 0.00 | 65 | 1004.3 |
| 20260505181100 | 85 | 116 | 5.2 | 11.3 | 0.00 | 0.00 | 0.00 | 64 | 1004.2 |
| 20260505180600 | 84 | 210 | 3.5 | 9.6 | 0.00 | 0.00 | 0.00 | 65 | 1004.3 |
| 20260505175601 | 85 | 217 | 4.3 | 10.4 | 0.00 | 0.00 | 0.00 | 66 | 1004.3 |
| 20260505175101 | 85 | 196 | 4.3 | 9.6 | 0.00 | 0.00 | 0.00 | 66 | 1004.2 |
| 20260505174606 | 85 | 170 | 4.3 | 9.6 | 0.00 | 0.00 | 0.00 | 68 | 1004.3 |
| 20260505174100 | 84 | 232 | 3.5 | 9.6 | 0.00 | 0.00 | 0.00 | 67 | 1004.3 |
| 20260505173602 | 83 | 134 | 3.5 | 12.2 | 0.00 | 0.00 | 0.00 | 70 | 1004.2 |
| 20260505173100 | 83 | 200 | 5.2 | 12.2 | 0.00 | 0.00 | 0.00 | 69 | 1004.2 |
| 20260505172600 | 82 | 226 | 4.3 | 12.2 | 0.00 | 0.00 | 0.00 | 70 | 1004.2 |
| 20260505172100 | 81 | 205 | 4.3 | 12.2 | 0.00 | 0.00 | 0.00 | 71 | 1004.2 |
| 20260505171606 | 81 | 177 | 2.6 | 11.3 | 0.00 | 0.00 | 0.00 | 73 | 1004.3 |
| 20260505171103 | 81 | 148 | 6.1 | 11.3 | 0.00 | 0.00 | 0.00 | 72 | 1004.3 |
| 20260505170601 | 80 | 191 | 5.2 | 12.2 | 0.00 | 0.00 | 0.00 | 72 | 1004.3 |
| 20260505170059 | 80 | 160 | 4.3 | 12.2 | 0.00 | 0.00 | 0.00 | 73 | 1004.3 |
| 20260505165600 | 80 | 182 | 5.2 | 11.3 | 0.00 | 0.00 | 0.00 | 73 | 1004.3 |
| 20260505165100 | 79 | 207 | 5.2 | 11.3 | 0.00 | 0.00 | 0.00 | 73 | 1004.3 |
| 20260505164622 | 79 | 166 | 6.1 | 11.3 | 0.00 | 0.00 | 0.00 | 73 | 1004.3 |
| 20260505164102 | 80 | 117 | 3.5 | 9.6 | 0.00 | 0.00 | 0.00 | 73 | 1004.4 |
| 20260505163600 | 79 | 200 | 4.3 | 11.3 | 0.00 | 0.00 | 0.00 | 75 | 1004.2 |
| 20260505163107 | 79 | 187 | 4.3 | 11.3 | 0.00 | 0.00 | 0.00 | 75 | 1004.3 |
| 20260505162600 | 79 | 151 | 5.2 | 11.3 | 0.00 | 0.00 | 0.00 | 75 | 1004.3 |
| 20260505162100 | 78 | 196 | 3.5 | 7.8 | 0.00 | 0.00 | 0.00 | 75 | 1004.3 |
| 20260505161615 | 78 | 167 | 3.5 | 10.4 | 0.00 | 0.00 | 0.00 | 76 | 1004.2 |
| 20260505161100 | 78 | 147 | 4.3 | 10.4 | 0.00 | 0.00 | 0.00 | 76 | 1004.3 |
| 20260505160601 | 78 | 233 | 6.1 | 12.2 | 0.00 | 0.00 | 0.00 | 76 | 1004.1 |
| 20260505153107 | 77 | 167 | 6.1 | 12.2 | 0.00 | 0.00 | 0.00 | 77 | 1004.1 |
| 20260505152601 | 77 | 163 | 5.2 | 13.9 | 0.00 | 0.00 | 0.00 | 76 | 1004.2 |
| 20260505152101 | 77 | 209 | 6.1 | 13.9 | 0.00 | 0.00 | 0.00 | 77 | 1004.2 |
| 20260505151600 | 77 | 134 | 6.1 | 13.0 | 0.00 | 0.00 | 0.00 | 76 | 1004.0 |
| 20260505151104 | 77 | 212 | 7.0 | 12.2 | 0.00 | 0.00 | 0.00 | 77 | 1004.0 |
| 20260505150601 | 76 | 127 | 5.2 | 12.2 | 0.00 | 0.00 | 0.00 | 79 | 1004.0 |
| 20260505140602 | 73 | 169 | 5.2 | 9.6 | 0.00 | 0.00 | 0.00 | 82 | 1004.0 |
| 20260505130114 | 71 | 184 | 5.2 | 13.9 | 0.00 | 0.00 | 0.00 | 85 | 1003.8 |
| 20260505124617 | 71 | 213 | 6.1 | 12.2 | 0.00 | 0.00 | 0.00 | 86 | 1003.6 |
| 20260505124101 | 70 | 214 | 4.3 | 11.3 | 0.00 | 0.00 | 0.00 | 86 | 1003.4 |
| 20260505123600 | 70 | 210 | 5.2 | 11.3 | 0.00 | 0.00 | 0.00 | 86 | 1003.3 |
| 20260505123116 | 70 | 310 | 4.3 | 13.0 | 0.00 | 0.00 | 0.00 | 86 | 1003.1 |
| 20260505122602 | 70 | 176 | 6.1 | 13.0 | 0.00 | 0.00 | 0.00 | 86 | 1003.1 |
| 20260505122100 | 70 | 194 | 2.6 | 9.6 | 0.00 | 0.00 | 0.00 | 86 | 1003.2 |
| 20260505121600 | 70 | 169 | 4.3 | 10.4 | 0.00 | 0.00 | 0.00 | 86 | 1003.0 |
| 20260505121105 | 70 | 205 | 4.3 | 10.4 | 0.00 | 0.00 | 0.00 | 86 | 1002.8 |
| 20260505120600 | 70 | 172 | 4.3 | 9.6 | 0.00 | 0.00 | 0.00 | 86 | 1003.0 |
| 20260505120123 | 70 | 173 | 3.5 | 8.7 | 0.00 | 0.00 | 0.00 | 86 | 1003.1 |
| 20260505115559 | 69 | 207 | 3.5 | 8.7 | 0.00 | 0.00 | 0.00 | 87 | 1003.0 |
| 20260505115102 | 69 | 205 | 3.5 | 10.4 | 0.00 | 0.00 | 0.00 | 87 | 1003.0 |
| 20260505114602 | 69 | 184 | 3.5 | 10.4 | 0.00 | 0.00 | 0.00 | 87 | 1002.9 |
| 20260505114059 | 69 | 204 | 3.5 | 8.7 | 0.00 | 0.00 | 0.00 | 87 | 1002.9 |
| 20260505113559 | 69 | 170 | 4.3 | 8.7 | 0.00 | 0.00 | 0.00 | 86 | 1002.8 |
| 20260505113106 | 69 | 230 | 3.5 | 9.6 | 0.00 | 0.00 | 0.00 | 86 | 1002.8 |
| 20260505112604 | 69 | 208 | 2.6 | 9.6 | 0.00 | 0.00 | 0.00 | 86 | 1002.8 |
| 20260505112100 | 69 | 198 | 2.6 | 8.7 | 0.00 | 0.00 | 0.00 | 86 | 1002.8 |
| 20260505111559 | 69 | 127 | 3.5 | 8.7 | 0.00 | 0.00 | 0.00 | 86 | 1002.8 |
| 20260505111103 | 69 | 240 | 3.5 | 7.0 | 0.00 | 0.00 | 0.00 | 86 | 1002.8 |
| 20260505110559 | 69 | 209 | 2.6 | 7.0 | 0.00 | 0.00 | 0.00 | 86 | 1002.9 |
| 20260505110118 | 69 | 148 | 3.5 | 7.8 | 0.00 | 0.00 | 0.00 | 86 | 1002.9 |
| 20260505102100 | 70 | 206 | 7.0 | 11.3 | 0.00 | 0.00 | 0.00 | 85 | 1002.8 |
| 20260505101603 | 70 | 170 | 3.5 | 13.0 | 0.00 | 0.00 | 0.00 | 85 | 1003.0 |
| 20260505101100 | 70 | 165 | 7.0 | 13.0 | 0.00 | 0.00 | 0.00 | 85 | 1002.7 |
| 20260505100603 | 70 | 205 | 5.2 | 13.0 | 0.00 | 0.00 | 0.00 | 85 | 1002.6 |
| 20260505100059 | 70 | 224 | 5.2 | 13.0 | 0.00 | 0.00 | 0.00 | 85 | 1002.6 |
| 20260505095603 | 71 | 158 | 6.1 | 13.0 | 0.00 | 0.00 | 0.00 | 84 | 1002.7 |
| 20260505095059 | 71 | 205 | 6.1 | 13.0 | 0.00 | 0.00 | 0.00 | 84 | 1002.7 |
| 20260505094609 | 71 | 193 | 5.2 | 11.3 | 0.00 | 0.00 | 0.00 | 84 | 1002.7 |
| 20260505094059 | 71 | 186 | 4.3 | 11.3 | 0.00 | 0.00 | 0.00 | 84 | 1002.7 |
| 20260505093559 | 71 | 180 | 4.3 | 11.3 | 0.00 | 0.00 | 0.00 | 84 | 1002.7 |
| 20260505093109 | 71 | 84 | 6.1 | 13.0 | 0.00 | 0.00 | 0.00 | 84 | 1002.7 |
| 20260505092600 | 71 | 121 | 5.2 | 13.0 | 0.00 | 0.00 | 0.00 | 84 | 1002.8 |
| 20260505092100 | 71 | 124 | 7.0 | 13.9 | 0.00 | 0.00 | 0.00 | 83 | 1002.9 |
| 20260505091558 | 71 | 231 | 4.3 | 13.9 | 0.00 | 0.00 | 0.00 | 83 | 1002.9 |
| 20260505091100 | 71 | 219 | 5.2 | 14.8 | 0.00 | 0.00 | 0.00 | 83 | 1003.0 |
| 20260505090559 | 71 | 191 | 6.1 | 14.8 | 0.00 | 0.00 | 0.00 | 83 | 1003.1 |
| 20260505090101 | 71 | 136 | 7.0 | 14.8 | 0.00 | 0.00 | 0.00 | 83 | 1003.1 |
| 20260505085559 | 71 | 154 | 6.1 | 12.2 | 0.00 | 0.00 | 0.00 | 82 | 1003.1 |
| 20260505085100 | 72 | 177 | 6.1 | 16.5 | 0.00 | 0.00 | 0.00 | 82 | 1003.3 |
| 20260505084622 | 72 | 161 | 5.2 | 16.5 | 0.00 | 0.00 | 0.00 | 82 | 1003.2 |
| 20260505084059 | 72 | 188 | 7.0 | 13.0 | 0.00 | 0.00 | 0.00 | 82 | 1003.3 |
| 20260505083559 | 72 | 155 | 5.2 | 13.0 | 0.00 | 0.00 | 0.00 | 81 | 1003.3 |
| 20260505083103 | 72 | 184 | 6.1 | 13.0 | 0.00 | 0.00 | 0.00 | 81 | 1003.4 |
| 20260505082602 | 72 | 150 | 5.2 | 11.3 | 0.00 | 0.00 | 0.00 | 81 | 1003.4 |
| 20260505082100 | 72 | 191 | 5.2 | 11.3 | 0.00 | 0.00 | 0.00 | 80 | 1003.2 |
| 20260505081615 | 72 | 178 | 4.3 | 11.3 | 0.00 | 0.00 | 0.00 | 80 | 1003.2 |
| 20260505081100 | 72 | 195 | 5.2 | 9.6 | 0.00 | 0.00 | 0.00 | 80 | 1003.3 |
| 20260505080600 | 72 | 204 | 5.2 | 10.4 | 0.00 | 0.00 | 0.00 | 79 | 1003.2 |
| 20260505080109 | 73 | 204 | 5.2 | 10.4 | 0.00 | 0.00 | 0.00 | 79 | 1003.3 |
| 20260505075559 | 73 | 177 | 5.2 | 13.0 | 0.00 | 0.00 | 0.00 | 79 | 1003.3 |
| 20260505075059 | 73 | 196 | 6.1 | 13.0 | 0.00 | 0.00 | 0.00 | 78 | 1003.4 |
| 20260505074559 | 73 | 206 | 5.2 | 12.2 | 0.00 | 0.00 | 0.00 | 78 | 1003.5 |
| 20260505074100 | 73 | 207 | 6.1 | 12.2 | 0.00 | 0.00 | 0.00 | 78 | 1003.6 |
| 20260505073603 | 73 | 203 | 4.3 | 9.6 | 0.00 | 0.00 | 0.00 | 78 | 1003.6 |
| 20260505073059 | 73 | 179 | 4.3 | 8.7 | 0.00 | 0.00 | 0.00 | 77 | 1003.8 |
| 20260505072559 | 73 | 190 | 4.3 | 12.2 | 0.00 | 0.00 | 0.00 | 77 | 1003.9 |
| 20260505072100 | 73 | 187 | 5.2 | 12.2 | 0.00 | 0.00 | 0.00 | 77 | 1004.1 |
| 20260505071617 | 73 | 178 | 6.1 | 11.3 | 0.00 | 0.00 | 0.00 | 76 | 1004.0 |
| 20260505071100 | 73 | 214 | 5.2 | 15.6 | 0.00 | 0.00 | 0.00 | 76 | 1004.1 |
| 20260505070603 | 73 | 164 | 7.0 | 15.6 | 0.00 | 0.00 | 0.00 | 76 | 1004.2 |
| 20260505070111 | 74 | 202 | 5.2 | 10.4 | 0.00 | 0.00 | 0.00 | 76 | 1004.3 |
| 20260505065559 | 74 | 121 | 5.2 | 14.8 | 0.00 | 0.00 | 0.00 | 75 | 1004.3 |
| 20260505065101 | 74 | 160 | 6.1 | 14.8 | 0.00 | 0.00 | 0.00 | 75 | 1004.5 |
| 20260505064600 | 74 | 214 | 4.3 | 10.4 | 0.00 | 0.00 | 0.00 | 75 | 1004.6 |
| 20260505064103 | 74 | 206 | 4.3 | 11.3 | 0.00 | 0.00 | 0.00 | 74 | 1004.6 |
| 20260505063559 | 74 | 143 | 5.2 | 13.9 | 0.00 | 0.00 | 0.00 | 74 | 1004.8 |
| 20260505063058 | 74 | 129 | 6.1 | 13.9 | 0.00 | 0.00 | 0.00 | 73 | 1004.8 |
| 20260505062559 | 74 | 72 | 5.2 | 13.9 | 0.00 | 0.00 | 0.00 | 73 | 1004.8 |
| 20260505062101 | 75 | 226 | 5.2 | 13.0 | 0.00 | 0.00 | 0.00 | 73 | 1004.8 |
| 20260505061601 | 75 | 205 | 5.2 | 13.0 | 0.00 | 0.00 | 0.00 | 73 | 1004.8 |
| 20260505061059 | 75 | 176 | 7.0 | 13.9 | 0.00 | 0.00 | 0.00 | 72 | 1004.9 |
| 20260505060600 | 75 | 211 | 5.2 | 13.9 | 0.00 | 0.00 | 0.00 | 73 | 1004.9 |
| 20260505060059 | 75 | 113 | 4.3 | 12.2 | 0.00 | 0.00 | 0.00 | 73 | 1004.9 |
| 20260505055600 | 75 | 209 | 6.1 | 12.2 | 0.00 | 0.00 | 0.00 | 73 | 1004.9 |
| 20260505055100 | 74 | 133 | 6.1 | 12.2 | 0.00 | 0.00 | 0.00 | 73 | 1004.8 |
| 20260505054602 | 74 | 225 | 5.2 | 12.2 | 0.00 | 0.00 | 0.00 | 74 | 1004.9 |
| 20260505054103 | 74 | 203 | 3.5 | 9.6 | 0.00 | 0.00 | 0.00 | 74 | 1004.8 |
| 20260505053559 | 74 | 176 | 5.2 | 10.4 | 0.00 | 0.00 | 0.00 | 75 | 1004.8 |
| 20260505053105 | 74 | 222 | 4.3 | 10.4 | 0.00 | 0.00 | 0.00 | 75 | 1004.8 |
| 20260505052559 | 74 | 175 | 4.3 | 9.6 | 0.00 | 0.00 | 0.00 | 75 | 1004.7 |
| 20260505052103 | 74 | 143 | 4.3 | 9.6 | 0.00 | 0.00 | 0.00 | 75 | 1004.8 |
| 20260505051559 | 74 | 226 | 5.2 | 8.7 | 0.00 | 0.00 | 0.00 | 75 | 1004.8 |
| 20260505051059 | 74 | 203 | 3.5 | 10.4 | 0.00 | 0.00 | 0.00 | 75 | 1004.8 |
| 20260505050559 | 74 | 167 | 3.5 | 10.4 | 0.00 | 0.00 | 0.00 | 75 | 1004.9 |
| 20260505041557 | 74 | 162 | 5.2 | 13.9 | 0.00 | 0.00 | 0.00 | 74 | 1005.1 |
| 20260505041059 | 74 | 201 | 6.1 | 13.9 | 0.00 | 0.00 | 0.00 | 74 | 1005.0 |
| 20260505040602 | 74 | 194 | 6.1 | 11.3 | 0.00 | 0.00 | 0.00 | 74 | 1005.0 |
| 20260505040105 | 74 | 220 | 5.2 | 11.3 | 0.00 | 0.00 | 0.00 | 74 | 1005.1 |
| 20260505035559 | 74 | 198 | 5.2 | 11.3 | 0.00 | 0.00 | 0.00 | 74 | 1005.1 |
| 20260505035059 | 74 | 140 | 5.2 | 11.3 | 0.00 | 0.00 | 0.00 | 73 | 1005.0 |
| 20260505034557 | 75 | 176 | 7.0 | 13.0 | 0.00 | 0.00 | 0.00 | 73 | 1005.0 |
| 20260505034059 | 74 | 198 | 5.2 | 13.0 | 0.00 | 0.00 | 0.00 | 73 | 1005.1 |
| 20260505033600 | 75 | 208 | 5.2 | 11.3 | 0.00 | 0.00 | 0.00 | 73 | 1005.0 |
| 20260505033100 | 74 | 160 | 6.1 | 11.3 | 0.00 | 0.00 | 0.00 | 73 | 1005.0 |
| 20260505032600 | 75 | 113 | 5.2 | 9.6 | 0.00 | 0.00 | 0.00 | 73 | 1004.9 |
| 20260505032059 | 75 | 134 | 5.2 | 10.4 | 0.00 | 0.00 | 0.00 | 73 | 1004.9 |
| 20260505031601 | 75 | 175 | 6.1 | 10.4 | 0.00 | 0.00 | 0.00 | 73 | 1005.0 |
| 20260505031059 | 75 | 122 | 6.1 | 10.4 | 0.00 | 0.00 | 0.00 | 73 | 1005.2 |
| 20260505030600 | 74 | 151 | 4.3 | 9.6 | 0.00 | 0.00 | 0.00 | 73 | 1005.2 |
| 20260505030104 | 75 | 72 | 5.2 | 10.4 | 0.00 | 0.00 | 0.00 | 73 | 1005.1 |
| 20260505025600 | 74 | 193 | 3.5 | 11.3 | 0.00 | 0.00 | 0.00 | 73 | 1005.1 |
| 20260505025101 | 74 | 174 | 3.5 | 11.3 | 0.00 | 0.00 | 0.00 | 73 | 1005.1 |
| 20260505024558 | 75 | 205 | 3.5 | 12.2 | 0.00 | 0.00 | 0.00 | 73 | 1005.2 |
| 20260505024102 | 75 | 150 | 5.2 | 12.2 | 0.00 | 0.00 | 0.00 | 73 | 1005.2 |
| 20260505023559 | 74 | 146 | 3.5 | 9.6 | 0.00 | 0.00 | 0.00 | 73 | 1005.2 |
| 20260505023108 | 75 | 122 | 3.5 | 9.6 | 0.00 | 0.00 | 0.00 | 72 | 1005.1 |
| 20260505022602 | 75 | 124 | 4.3 | 11.3 | 0.00 | 0.00 | 0.00 | 72 | 1005.1 |
| 20260505022100 | 75 | 141 | 3.5 | 11.3 | 0.00 | 0.00 | 0.00 | 72 | 1005.2 |
| 20260505021603 | 75 | 119 | 4.3 | 11.3 | 0.00 | 0.00 | 0.00 | 72 | 1005.2 |
| 20260505021059 | 75 | 162 | 4.3 | 8.7 | 0.00 | 0.00 | 0.00 | 72 | 1005.0 |
| 20260505020600 | 75 | 139 | 5.2 | 8.7 | 0.00 | 0.00 | 0.00 | 72 | 1005.1 |
| 20260505020104 | 74 | 178 | 4.3 | 9.6 | 0.00 | 0.00 | 0.00 | 72 | 1005.1 |
| 20260505015600 | 74 | 151 | 3.5 | 9.6 | 0.00 | 0.00 | 0.00 | 72 | 1005.0 |
| 20260505015102 | 75 | 205 | 4.3 | 10.4 | 0.00 | 0.00 | 0.00 | 72 | 1005.0 |
| 20260505014600 | 75 | 195 | 4.3 | 10.4 | 0.00 | 0.00 | 0.00 | 71 | 1004.9 |
| 20260505014059 | 75 | 152 | 5.2 | 10.4 | 0.00 | 0.00 | 0.00 | 71 | 1004.9 |
| 20260505013600 | 75 | 143 | 4.3 | 9.6 | 0.00 | 0.00 | 0.00 | 71 | 1005.0 |
| 20260505013057 | 75 | 173 | 5.2 | 12.2 | 0.00 | 0.00 | 0.00 | 71 | 1004.9 |
| 20260505012602 | 75 | 152 | 5.2 | 12.2 | 0.00 | 0.00 | 0.00 | 71 | 1005.1 |
| 20260505012059 | 75 | 207 | 5.2 | 11.3 | 0.00 | 0.00 | 0.00 | 70 | 1004.9 |
| 20260505011559 | 76 | 120 | 5.2 | 13.9 | 0.00 | 0.00 | 0.00 | 70 | 1005.0 |
| 20260505011101 | 76 | 96 | 7.0 | 13.9 | 0.00 | 0.00 | 0.00 | 70 | 1005.1 |
| 20260505010601 | 76 | 178 | 6.1 | 11.3 | 0.00 | 0.00 | 0.00 | 70 | 1005.0 |
| 20260505010105 | 76 | 161 | 5.2 | 10.4 | 0.00 | 0.00 | 0.00 | 70 | 1005.0 |
| 20260505005600 | 76 | 162 | 5.2 | 10.4 | 0.00 | 0.00 | 0.00 | 69 | 1004.9 |
| 20260505005100 | 76 | 159 | 4.3 | 10.4 | 0.00 | 0.00 | 0.00 | 69 | 1005.1 |
| 20260505004559 | 76 | 139 | 4.3 | 10.4 | 0.00 | 0.00 | 0.00 | 69 | 1005.0 |
| 20260505004059 | 76 | 143 | 4.3 | 10.4 | 0.00 | 0.00 | 0.00 | 68 | 1004.9 |
| 20260505003602 | 77 | 148 | 5.2 | 9.6 | 0.00 | 0.00 | 0.00 | 68 | 1005.0 |
| 20260505003106 | 77 | 200 | 6.1 | 13.0 | 0.00 | 0.00 | 0.00 | 68 | 1005.0 |
| 20260505002601 | 77 | 162 | 5.2 | 13.0 | 0.00 | 0.00 | 0.00 | 67 | 1005.0 |
| 20260505002100 | 77 | 219 | 7.0 | 12.2 | 0.00 | 0.00 | 0.00 | 67 | 1005.2 |
| 20260505001558 | 78 | 178 | 5.2 | 12.2 | 0.00 | 0.00 | 0.00 | 67 | 1005.0 |
| 20260505001059 | 78 | 207 | 5.2 | 12.2 | 0.00 | 0.00 | 0.00 | 66 | 1005.1 |
| 20260505000559 | 79 | 195 | 4.3 | 12.2 | 0.00 | 0.00 | 0.00 | 66 | 1005.4 |
| 20260505000112 | 79 | 174 | 6.1 | 11.3 | 0.00 | 0.00 | 0.00 | 65 | 1005.3 |
| 20260504235559 | 79 | 181 | 5.2 | 11.3 | 0.00 | 0.00 | 0.00 | 65 | 1005.3 |
| 20260504235100 | 79 | 194 | 6.1 | 12.2 | 0.00 | 0.00 | 0.00 | 65 | 1005.2 |
| 20260504234600 | 79 | 198 | 3.5 | 12.2 | 0.00 | 0.00 | 0.00 | 65 | 1005.2 |
| 20260504234100 | 79 | 179 | 3.5 | 12.2 | 0.00 | 0.00 | 0.00 | 65 | 1005.2 |
| 20260504233601 | 79 | 172 | 7.0 | 12.2 | 0.00 | 0.00 | 0.00 | 64 | 1005.2 |
| 20260504233105 | 79 | 142 | 6.1 | 13.0 | 0.00 | 0.00 | 0.00 | 65 | 1005.3 |
| 20260504232600 | 79 | 186 | 6.1 | 14.8 | 0.00 | 0.00 | 0.00 | 64 | 1005.4 |
| 20260504232100 | 79 | 229 | 5.2 | 14.8 | 0.00 | 0.00 | 0.00 | 64 | 1005.4 |
| 20260504231559 | 79 | 209 | 7.0 | 14.8 | 0.00 | 0.00 | 0.00 | 63 | 1005.4 |
| 20260504231059 | 80 | 174 | 6.1 | 17.4 | 0.00 | 0.00 | 0.00 | 63 | 1005.4 |
| 20260504230559 | 80 | 195 | 7.8 | 17.4 | 0.00 | 0.00 | 0.00 | 62 | 1005.4 |
| 20260504230100 | 80 | 214 | 7.8 | 17.4 | 0.00 | 0.00 | 0.00 | 62 | 1005.4 |
| 20260504225602 | 81 | 154 | 8.7 | 14.8 | 0.00 | 0.00 | 0.00 | 61 | 1005.5 |
| 20260504225102 | 81 | 149 | 7.8 | 13.9 | 0.00 | 0.00 | 0.00 | 61 | 1005.6 |
| 20260504224603 | 82 | 144 | 7.0 | 13.9 | 0.00 | 0.00 | 0.00 | 60 | 1005.6 |
| 20260504224100 | 82 | 168 | 6.1 | 13.0 | 0.00 | 0.00 | 0.00 | 60 | 1005.6 |
| 20260504223559 | 82 | 217 | 6.1 | 13.9 | 0.00 | 0.00 | 0.00 | 60 | 1005.6 |
| 20260504223058 | 82 | 130 | 7.0 | 13.9 | 0.00 | 0.00 | 0.00 | 61 | 1005.7 |
| 20260504222600 | 82 | 316 | 6.1 | 13.9 | 0.00 | 0.00 | 0.00 | 61 | 1005.7 |
| 20260504222100 | 82 | 203 | 6.1 | 13.9 | 0.00 | 0.00 | 0.00 | 61 | 1005.6 |
| 20260504221600 | 81 | 194 | 6.1 | 13.9 | 0.00 | 0.00 | 0.00 | 61 | 1005.7 |
| 20260504221100 | 82 | 201 | 7.0 | 15.6 | 0.00 | 0.00 | 0.00 | 60 | 1005.7 |
| 20260504220600 | 82 | 214 | 5.2 | 15.6 | 0.00 | 0.00 | 0.00 | 60 | 1005.7 |
| 20260504220118 | 82 | 144 | 7.0 | 14.8 | 0.00 | 0.00 | 0.00 | 59 | 1005.8 |
| 20260504215600 | 82 | 202 | 5.2 | 13.9 | 0.00 | 0.00 | 0.00 | 61 | 1005.8 |
| 20260504215104 | 81 | 159 | 6.1 | 13.0 | 0.00 | 0.00 | 0.00 | 60 | 1005.9 |